Location: Ithaca
(42.4410°N, 76.4970°W)
Time: 01:32:44
(UTC-04:00)

HST - Visible Passes

Search period start: 18 April 2014 00:00
Search period end: 28 April 2014 00:00
Orbit: 548 x 553 km, 28.5° (Epoch: 17 April)

Date Brightness Start Highest point End Pass type
(mag) Time Alt. Az. Time Alt. Az. Time Alt. Az.
18 Apr 3.0 21:16:37 10° SSW 21:18:04 12° S 21:18:04 12° S visible
19 Apr 3.0 21:09:55 10° SSW 21:11:30 12° S 21:12:05 12° S visible
20 Apr 3.0 21:03:22 10° SSW 21:04:52 12° S 21:06:02 11° SSE visible
21 Apr 3.1 20:57:00 10° SSW 20:58:13 11° S 20:59:27 10° S visible
22 Apr 3.2 20:51:06 10° SSW 20:51:34 10° S 20:52:02 10° S visible
